Location: Home
(42.5358°N, 72.7383°W)
Time: 12:07:02
(UTC-05:00)

A-11 Canister half - Pass Details

Date: 09 December 2021
Orbit: 1516 x 1684 km, 47.2° (Epoch: 24 January)

Event Time Altitude Azimuth Distance (km) Brightness Sun altitude
Exits shadow 04:14:19 11° 203° (SSW) 3,671 10.8 -31.3°
Maximum altitude 04:22:50 43° 136° (SE) 2,105 9.9 -29.8°
Drops below altitude 10° 04:31:50 10° 70° (ENE) 3,860 11.9 -28.1°
Sets 04:35:11 0° 64° (ENE) 4,871 12.5 -27.5°
